DELTA 1 DEB, 42648

Orbit data source: Space-Track

DELTA 1 DEB, 42648 is space debris in SSO originally from a launch on Thu, 12 Jun 1975 UTC launched from the Air Force Western Test Range (AFWTR). Debris objects in space refer to the collection of defunct objects orbiting the Earth. Examples of debris include non-operational satellites, rocket bodies, and fragments generated from explosions, collisions, or faulty payload assembly.

Loading next visibility...
Identifier
42648, 1975-052MH
Orbit
SSO
Country
Flag of USUS
Related business
Manufacturer
Unknown
Mission
Spacecraft
Bus & Motor
Unknown
Mass
Unknown
Launch date (UTC)
1975-06-12 (51 years ago)
Launch vehicle
Unknown
Launch site
Air Force Western Test Range (AFWTR)
Object type
Payload
Rocket body
Debris
Shape & HBR
Unknown shape, 0.1 m
Radar Cross Section
Small (<0.1 m²)

Expand to show TLE details & history
Last TLE update: 4 days ago

TLE from 4 days ago
0 DELTA 1 DEB
1 42648U 75052MH  26169.54132764  .00003161  00000-0  39776-2 0  9994
2 42648 100.3551 278.4654 0210034 113.6383 248.6953 13.55999559612604
Epoch: 2026-06-18T12:59Z
TLE epoch observation values (Epoch: 2026-06-18T12:59:30.708Z)
Latitude
-0.00003°
Longitude
176.80428°
Altitude
1,112.549 km
Speed
7.267 km/s
True Right ascension
18h 33m 51s
True Declination
0° 00' 00"
Sunlit
Object was in full shadow at epoch
Visualization orbit readout
Latitude
Unknown
Longitude
Unknown
Altitude
Unknown
Speed
Unknown
Apparent Right ascension
Unknown
Apparent Declination
Unknown
Sunlit
N/A
Visualization observer readout
Local Sidereal Time
19:08:34
Azimuth
Unknown
Elevation
Unknown
Doppler factor
Unknown
Orbital elements
Apogee altitude
1,203.558 km
Perigee altitude
891.627 km
Semi-major axis
7,425.73 km
Eccentricity
0.021
Inclination
100.3551°
RAAN
278.4654°
Arg. of periapsis
113.6383°
True anomaly
246.47472°
Mean anomaly
248.6953°
Eccentric anomaly
247.58283°
Mean motion
3.39183 °/min
Orbital period
106.14 mins
BSTAR
0.0039776
Loading maneuver chart data...
Computing Atmospheric mass density...
Loading historical data...
Loading historical data...
Loading historical data...
Loading historical data...
Loading historical data...
Loading historical data...
Loading historical data...

Documentation

Showing up to 5 results
|